This demonstration page uses our WeatherBlox Daily Observations layout. Learn more.

Hourly Observations for January 8, 2018

Temp ( °F °C ) Dew Point ( °F °C ) Humidity (%) Winds ( mph kmh ) Pressure ( in mb ) Visibility ( mi km ) Precip ( " mm )
12:15 am 00:15 Clear 31 -0.8 29 -1.4 96 96 WNW 8 13 30.21 1023 10 16.0934 0 0
12:35 am 00:35 Clear 31 -0.6 29 -1.5 94 94 WNW 7 11 30.21 1023 10 16.0934 0 0
12:55 am 00:55 Clear 30 -0.9 29 -1.6 95 95 WNW 6 9 30.21 1023 10 16.0934 0 0
1:15 am 01:15 Clear 30 -1.1 28 -2 94 94 NW 5 7 30.21 1023 10 16.0934 0 0
1:35 am 01:35 Clear 29 -1.9 28 -2.5 96 96 WNW 5 7 30.21 1023 10 16.0934 0 0
1:55 am 01:55 Clear 30 -1.3 28 -2 95 95 W 6 9 30.21 1023 10 16.0934 0 0
2:15 am 02:15 Clear 30 -1.2 28 -2 94 94 W 6 9 30.21 1023 10 16.0934 0 0
2:35 am 02:35 Clear 29 -1.5 28 -2 96 96 W 5 7 30.21 1023 10 16.0934 0 0
2:55 am 02:55 Clear 29 -1.7 28 -2.3 96 96 W 7 11 30.21 1023 10 16.0934 0 0
3:15 am 03:15 Clear 28 -2.2 28 -2.5 98 98 W 3 6 30.21 1023 10 16.0934 0 0
3:35 am 03:35 Clear 27 -2.6 26 -3.1 96 96 WSW 3 6 30.21 1023 10 16.0934 0 0
3:55 am 03:55 Clear 27 -2.9 26 -3.1 99 99 W 5 7 30.24 1024 10 16.0934 0 0
4:15 am 04:15 Clear 25 -3.8 25 -4 99 99 WSW 3 6 30.24 1024 10 16.0934 0 0
4:35 am 04:35 Clear 25 -4.1 24 -4.4 98 98 WSW 5 7 30.24 1024 10 16.0934 0 0
4:55 am 04:55 Clear 26 -3.3 25 -3.7 97 97 WSW 5 7 30.24 1024 10 16.0934 0 0
5:15 am 05:15 Clear 26 -3.3 25 -3.8 96 96 W 6 9 30.24 1024 10 16.0934 0 0
5:35 am 05:35 Clear 27 -2.8 26 -3.5 95 95 W 7 11 30.24 1024 10 16.0934 0 0
5:55 am 05:55 Clear 26 -3.1 25 -3.7 96 96 W 5 7 30.24 1024 10 16.0934 0 0
6:15 am 06:15 Clear 26 -3.2 25 -4 94 94 W 7 11 30.27 1025 10 16.0934 0 0
6:35 am 06:35 Clear 26 -3.4 25 -4.1 95 95 W 7 11 30.27 1025 10 16.0934 0 0
6:55 am 06:55 Clear 27 -3 25 -3.7 95 95 WSW 7 11 30.27 1025 10 16.0934 0 0
7:15 am 07:15 Clear 27 -2.9 25 -3.9 93 93 W 5 7 30.27 1025 10 16.0934 0 0
7:35 am 07:35 Clear 26 -3.2 24 -4.2 93 93 W 5 7 30.27 1025 10 16.0934 0 0
7:55 am 07:55 Clear 27 -3 25 -4 93 93 W 3 6 30.27 1025 10 16.0934 0 0
8:15 am 08:15 Sunny 26 -3.2 24 -4.2 93 93 W 5 7 30.24 1024 10 16.0934 0 0
8:35 am 08:35 Sunny 27 -2.7 25 -3.8 92 92 W 5 7 30.27 1025 10 16.0934 0 0
8:55 am 08:55 Sunny 31 -0.7 28 -2 91 91 Calm 30.21 1023 10 16.0934 0 0
9:15 am 09:15 Sunny 30 -1 28 -2.4 90 90 Calm 30.21 1023 10 16.0934 0 0
9:35 am 09:35 Sunny 30 -1 28 -2.2 92 92 SW 3 6 30.24 1024 10 16.0934 0 0
9:55 am 09:55 Sunny 32 0 30 -1.2 92 92 Calm 30.24 1024 10 16.0934 0 0
10:15 am 10:15 Sunny 34 1.1 31 -0.8 87 87 Calm 30.18 1022 10 16.0934 0 0
10:35 am 10:35 Sunny 37 2.7 32 -0.2 81 81 Calm 30.18 1022 10 16.0934 0 0
10:55 am 10:55 Sunny 39 4.1 33 0.4 77 77 SSW 5 7 30.15 1021 10 16.0934 0 0
11:15 am 11:15 Sunny 42 5.4 33 0.7 72 72 SW 6 9 30.15 1021 10 16.0934 0 0
11:35 am 11:35 Sunny 42 5.8 34 1.3 73 73 SW 8 13 30.15 1021 10 16.0934 0 0
11:55 am 11:55 Sunny 43 6.2 33 0.5 67 67 SW 7 11 30.15 1021 10 16.0934 0 0
12:15 pm 12:15 Sunny 44 6.5 32 0 64 64 SW 7 11 30.15 1021 10 16.0934 0 0
12:35 pm 12:35 Sunny 45 7.3 33 0.3 61 61 SW 9 15 30.09 1019 10 16.0934 0 0
12:55 pm 12:55 Sunny 47 8.1 32 0 57 57 SW 12 19 30.09 1019 10 16.0934 0 0
1:15 pm 13:15 Sunny 47 8.6 32 -0.1 55 55 SW 13 20 30.09 1019 10 16.0934 0 0
1:35 pm 13:35 Sunny 49 9.3 32 -0.1 52 52 SSW 12 19 30.06 1018 10 16.0934 0 0
1:55 pm 13:55 Sunny 50 10 32 0 50 50 SSW 13 20 30.03 1017 10 16.0934 0 0
2:15 pm 14:15 Sunny 51 10.7 32 0.1 48 48 SSW 12 19 30.03 1017 10 16.0934 0 0
2:35 pm 14:35 Sunny 52 11 32 -0.1 47 47 S 12 19 30 1016 10 16.0934 0 0
2:55 pm 14:55 Sunny 52 11.2 32 0 46 46 S 13 20 30 1016 10 16.0934 0 0
3:15 pm 15:15 Sunny 52 11.3 32 0 46 46 S 13 20 30 1016 10 16.0934 0 0
3:35 pm 15:35 Sunny 52 11.2 32 -0.1 46 46 S 14 22 30 1016 10 16.0934 0 0
3:55 pm 15:55 Sunny 51 10.8 32 -0.2 47 47 S 9 15 30 1016 10 16.0934 0 0
4:15 pm 16:15 Sunny 51 10.5 32 -0.2 48 48 S 10 17 30 1016 10 16.0934 0 0
4:35 pm 16:35 Sunny 50 9.9 32 -0.2 50 50 S 8 13 30 1016 10 16.0934 0 0
4:55 pm 16:55 Sunny 47 8.6 31 -0.3 54 54 S 9 15 30 1016 10 16.0934 0 0
5:15 pm 17:15 Sunny 47 8.5 31 -0.8 52 52 S 9 15 30 1016 10 16.0934 0 0
5:35 pm 17:35 Clear 46 7.9 30 -1.1 53 53 S 8 13 30 1016 10 16.0934 0 0
5:55 pm 17:55 Clear 45 7.3 29 -1.4 54 54 S 10 17 30.03 1017 10 16.0934 0 0
6:15 pm 18:15 Clear 43 6.3 29 -1.5 58 58 S 9 15 30.03 1017 10 16.0934 0 0
6:35 pm 18:35 Clear 42 5.5 29 -1.6 61 61 S 9 15 30.03 1017 10 16.0934 0 0
6:55 pm 18:55 Clear 42 5.6 29 -1.5 61 61 S 10 17 30.03 1017 10 16.0934 0 0
7:15 pm 19:15 Clear 44 6.4 29 -1.5 57 57 S 14 22 30 1016 10 16.0934 0 0
7:35 pm 19:35 Clear 43 6 29 -1.8 58 58 S 10 17 30 1016 10 16.0934 0 0
7:55 pm 19:55 Clear 43 6.3 28 -2 56 56 S 14 22 30 1016 10 16.0934 0 0
8:15 pm 20:15 Clear 44 6.5 28 -2.1 55 55 S 14 22 30 1016 10 16.0934 0 0
8:35 pm 20:35 Clear 43 5.9 28 -2 57 57 S 10 17 30 1016 10 16.0934 0 0
8:55 pm 20:55 Clear 41 5.2 28 -2 60 60 S 10 17 30.03 1017 10 16.0934 0 0
9:15 pm 21:15 Clear 41 5.2 28 -2.3 59 59 S 12 19 30.03 1017 10 16.0934 0 0
9:35 pm 21:35 Clear 42 5.8 28 -2.3 56 56 S 14 22 30 1016 10 16.0934 0 0
9:55 pm 21:55 Clear 42 5.5 28 -2.4 57 57 S 10 17 30.03 1017 10 16.0934 0 0
10:15 pm 22:15 Clear 42 5.5 28 -2.3 58 58 S 12 19 30.03 1017 10 16.0934 0 0
10:35 pm 22:35 Clear 40 4.5 28 -2.5 61 61 S 12 19 30.03 1017 10 16.0934 0 0
10:55 pm 22:55 Clear 40 4.2 28 -2.5 62 62 S 8 13 30.03 1017 10 16.0934 0 0
11:15 pm 23:15 Clear 40 4.2 28 -2.5 62 62 S 12 19 30.03 1017 10 16.0934 0 0
11:35 pm 23:35 Clear 40 4.3 28 -2.5 62 62 S 10 17 30.03 1017 10 16.0934 0 0
11:55 pm 23:55 Clear 39 4.1 28 -2.3 63 63 S 12 19 30 1016 10 16.0934 0 0

Powered by AerisWeather